Location: Asheville, NC
(35.6000°N, 82.5500°W)
Time: 17:07:31
(UTC-05:00)

M-CUBED/EXP-1 PRIME - Pass Details

Date: 16 February 2018
Orbit: 431 x 677 km, 101.7° (Epoch: 18 February)

Event Time Altitude Azimuth Distance (km) Brightness Sun altitude
Rises 05:34:51 0° 37° (NE) 2,513 ? -21.1°
Reaches altitude 10° 05:37:22 10° 57° (ENE) 1,671 ? -20.6°
Maximum altitude 05:39:51 18° 102° (ESE) 1,297 ? -20.1°
Drops below altitude 10° 05:42:26 10° 146° (SE) 1,753 ? -19.6°
Sets 05:45:08 0° 165° (SSE) 2,691 ? -19.1°
